Location: Ferchesar
(52.6477°N, 12.4298°E)
Time: 10:06:03
(UTC+01:00)

Vanguard 3 - Pass Details

Date: 13 December 2021
Orbit: 508 x 3260 km, 33.3° (Epoch: 24 January)

Event Time Altitude Azimuth Distance (km) Brightness Sun altitude
Rises 07:18:46 0° 273° (W) 7,201 - -7.8°
Exits shadow 07:19:07 - 272° (W) 7,147 11.4 -7.7°
Reaches altitude 10° 07:25:31 10° 260° (W) 6,191 11.2 -6.9°
Maximum altitude 07:37:31 21° 222° (SW) 4,978 11.1 -5.3°
Drops below altitude 10° 07:47:46 10° 181° (S) 5,167 11.7 -4.0°
Sets 07:52:42 0° 167° (SSE) 5,734 12.3 -3.4°
